Stevens Point, WI

11:59 PM CST on December 09, 2019 (GMT -0600)
Stevens Point Municipal

Weather History for KSTE - October, 2019

Change the Weather History Date:

Wednesday, October 16, 2019

  Actual Average Record
Temperature  
Mean Temperature 42 °F -  
Max Temperature 48 °F 56 °F 84 °F (1968)
Min Temperature 36 °F 37 °F 17 °F (1952)
Degree Days  
Heating Degree Days 24    
Moisture  
Dew Point 34 °F    
Average Humidity 74    
Maximum Humidity 100    
Minimum Humidity 53    
Precipitation  
Precipitation 0.00 in - - ()
Sea Level Pressure  
Sea Level Pressure 29.95 in    
Wind  
Wind Speed 10 mph (NW)    
Max Wind Speed 16 mph    
Max Gust Speed 26 mph    
Visibility 10 miles    
Events      
Averages and records for this station are not official NWS values.
T = Trace of Precipitation, MM = Missing Value Source: NWS Daily Summary

Daily Weather History Graph

Daily Weather History Graph

Search for Another Location

Airport or City:

Astronomy

Oct. 16, 2019 Rise Set
Actual Time 7:14 AM CDT 6:12 PM CDT
Civil Twilight 6:44 AM CDT 6:41 PM CDT
Nautical Twilight 6:11 AM CDT 7:15 PM CDT
Astronomical Twilight 5:37 AM CDT 7:49 PM CDT
Moon 8:00 PM CDT (10/16) 9:49 AM CDT (10/16)
Length of Visible Light 11h 56m
Length of Day
10h 58m
Waning Gibbous, 92% of the Moon is Illuminated
Oct 16
Waning Gibbous
Oct 21
Last Quarter
Oct 27
New
Nov 4
First Quarter
Nov 12
Full

Hourly Weather History & Observations

Time (CDT) Temp. Windchill Dew Point Humidity Pressure Visibility Wind Dir Wind Speed Gust Speed Precip Events Conditions
12:15 AM 36.0 °F 27.5 °F 36.0 °F 100% 29.81 in 10.0 mi NW 12.7 mph 19.6 mph N/A   Overcast
12:35 AM 36.7 °F 29.4 °F 36.5 °F 99% 29.81 in 10.0 mi NW 10.4 mph 21.9 mph N/A   Overcast
12:55 AM 37.0 °F 28.5 °F 36.5 °F 98% 29.82 in 10.0 mi NW 13.8 mph 17.3 mph N/A   Overcast
1:15 AM 37.4 °F 28.9 °F 36.5 °F 97% 29.83 in 10.0 mi NW 13.8 mph 20.7 mph N/A   Overcast
1:35 AM 37.6 °F 30.0 °F 36.5 °F 96% 29.83 in 10.0 mi NNW 11.5 mph 19.6 mph N/A   Overcast
1:55 AM 37.9 °F 29.2 °F 36.5 °F 95% 29.84 in 10.0 mi NW 15.0 mph 18.4 mph N/A   Overcast
2:15 AM 38.3 °F 30.9 °F 36.7 °F 94% 29.84 in 10.0 mi NW 11.5 mph 17.3 mph N/A   Overcast
2:35 AM 38.5 °F 31.6 °F 36.7 °F 93% 29.85 in 10.0 mi NW 10.4 mph 17.3 mph N/A   Overcast
2:55 AM 38.8 °F 32.1 °F 36.5 °F 91% 29.86 in 10.0 mi NW 10.4 mph 17.3 mph N/A   Overcast
3:35 AM 39.2 °F 32.0 °F 36.5 °F 90% 29.86 in 10.0 mi NW 11.5 mph 20.7 mph N/A   Overcast
3:55 AM 39.6 °F 32.1 °F 36.5 °F 89% 29.87 in 10.0 mi NW 12.7 mph 20.7 mph N/A   Overcast
4:15 AM 39.7 °F 33.7 °F 36.7 °F 89% 29.88 in 10.0 mi NW 9.2 mph 17.3 mph N/A   Overcast
4:35 AM 40.1 °F 33.6 °F 36.7 °F 88% 29.88 in 10.0 mi NW 10.4 mph - N/A   Overcast
4:55 AM 40.1 °F 34.1 °F 37.4 °F 90% 29.89 in 10.0 mi NW 9.2 mph - N/A   Overcast
5:35 AM 40.1 °F 33.6 °F 37.4 °F 90% 29.89 in 10.0 mi NW 10.4 mph - N/A   Overcast
5:55 AM 40.1 °F 33.2 °F 37.4 °F 90% 29.89 in 10.0 mi NW 11.5 mph - N/A   Overcast
6:15 AM 40.1 °F 33.6 °F 37.6 °F 91% 29.90 in 10.0 mi NW 10.4 mph - N/A   Light Drizzle
6:35 AM 40.1 °F 34.7 °F 37.4 °F 90% 29.90 in 10.0 mi NW 8.1 mph 17.3 mph N/A   Overcast
6:55 AM 40.3 °F 32.2 °F 36.7 °F 87% 29.91 in 10.0 mi NW 15.0 mph 18.4 mph N/A   Overcast
7:15 AM 40.1 °F 33.2 °F 36.1 °F 86% 29.92 in 10.0 mi NW 11.5 mph 20.7 mph N/A   Overcast
7:35 AM 40.3 °F 33.9 °F 35.4 °F 83% 29.93 in 10.0 mi NW 10.4 mph 20.7 mph N/A   Overcast
7:55 AM 40.6 °F 33.8 °F 35.4 °F 82% 29.93 in 10.0 mi NNW 11.5 mph 17.3 mph N/A   Overcast
8:15 AM 41.0 °F 34.7 °F 35.4 °F 81% 29.93 in 10.0 mi NNW 10.4 mph 19.6 mph N/A   Overcast
8:35 AM 41.0 °F 34.3 °F 34.9 °F 79% 29.94 in 10.0 mi NNW 11.5 mph 20.7 mph N/A   Overcast
9:15 AM 41.0 °F 34.3 °F 34.9 °F 79% 29.95 in 10.0 mi NNW 11.5 mph - N/A   Overcast
9:35 AM 41.9 °F 36.3 °F 35.1 °F 77% 29.96 in 10.0 mi NNW 9.2 mph 16.1 mph N/A   Overcast
9:55 AM 42.4 °F 36.5 °F 34.9 °F 75% 29.96 in 10.0 mi NW 10.4 mph 19.6 mph N/A   Mostly Cloudy
10:15 AM 43.0 °F 36.0 °F 34.2 °F 71% 29.96 in 10.0 mi NNW 13.8 mph 21.9 mph N/A   Mostly Cloudy
10:35 AM 43.0 °F 38.2 °F 34.0 °F 71% 29.97 in 10.0 mi NNW 8.1 mph 19.6 mph N/A   Mostly Cloudy
10:55 AM 44.6 °F 37.4 °F 34.2 °F 67% 29.98 in 10.0 mi NNW 16.1 mph 21.9 mph N/A   Mostly Cloudy
11:35 AM 44.8 °F 38.7 °F 33.1 °F 64% 29.98 in 10.0 mi NNW 12.7 mph 20.7 mph N/A   Overcast
12:15 PM 45.0 °F 38.9 °F 32.9 °F 63% 29.99 in 10.0 mi NW 12.7 mph 18.4 mph N/A   Overcast
12:35 PM 46.0 °F 39.9 °F 32.2 °F 58% 29.98 in 10.0 mi NNW 13.8 mph 26.5 mph N/A   Mostly Cloudy
12:55 PM 46.8 °F - 32.2 °F 57% 29.98 in 10.0 mi NW 9.2 mph 24.2 mph N/A   Overcast
1:15 PM 45.9 °F 40.0 °F 32.2 °F 59% 29.99 in 10.0 mi NNW 12.7 mph 21.9 mph N/A   Overcast
1:35 PM 47.3 °F - 31.8 °F 55% 29.98 in 10.0 mi NW 12.7 mph 19.6 mph N/A   Overcast
1:55 PM 47.3 °F - 31.1 °F 53% 29.98 in 10.0 mi NW 15.0 mph 23.0 mph N/A   Mostly Cloudy
2:15 PM 47.7 °F - 32.0 °F 55% 29.98 in 10.0 mi NNW 13.8 mph 19.6 mph N/A   Mostly Cloudy
2:35 PM 46.4 °F 41.5 °F 32.2 °F 58% 29.98 in 10.0 mi WNW 10.4 mph 17.3 mph N/A   Mostly Cloudy
2:55 PM 46.8 °F - 32.0 °F 57% 29.98 in 10.0 mi NNW 13.8 mph 19.6 mph N/A   Mostly Cloudy
3:15 PM 46.6 °F - 32.4 °F 58% 29.98 in 10.0 mi NW 10.4 mph 18.4 mph N/A   Scattered Clouds
3:35 PM 47.7 °F - 32.2 °F 55% 29.97 in 10.0 mi NW 9.2 mph 18.4 mph N/A   Mostly Cloudy
3:55 PM 46.6 °F - 32.5 °F 58% 29.98 in 10.0 mi NW 9.2 mph 16.1 mph N/A   Mostly Cloudy
4:15 PM 47.1 °F - 32.5 °F 57% 29.98 in 10.0 mi NW 9.2 mph - N/A   Mostly Cloudy
4:35 PM 46.9 °F - 32.0 °F 56% 29.98 in 10.0 mi NW 11.5 mph 16.1 mph N/A   Mostly Cloudy
4:55 PM 46.8 °F - 32.0 °F 57% 29.98 in 10.0 mi WNW 11.5 mph - N/A   Mostly Cloudy
5:15 PM 45.9 °F 41.7 °F 32.0 °F 58% 29.99 in 10.0 mi WNW 8.1 mph - N/A   Overcast
5:35 PM 45.5 °F 41.8 °F 32.0 °F 59% 29.99 in 10.0 mi WNW 6.9 mph - N/A   Overcast
5:55 PM 45.0 °F 41.2 °F 32.0 °F 60% 29.99 in 10.0 mi WNW 6.9 mph - N/A   Overcast
6:15 PM 44.8 °F 42.4 °F 32.0 °F 61% 29.99 in 10.0 mi WNW 4.6 mph - N/A   Overcast
6:35 PM 44.4 °F 42.9 °F 32.0 °F 62% 29.99 in 10.0 mi WNW 3.5 mph - N/A   Overcast
6:55 PM 44.1 °F 42.5 °F 32.4 °F 63% 30.00 in 10.0 mi West 3.5 mph - N/A   Overcast
7:15 PM 43.9 °F 42.3 °F 32.7 °F 65% 30.00 in 10.0 mi West 3.5 mph - N/A   Overcast
7:35 PM 43.9 °F - 33.3 °F 66% 30.01 in 10.0 mi Calm Calm - N/A   Overcast
7:55 PM 43.7 °F 42.1 °F 32.9 °F 66% 30.01 in 10.0 mi WNW 3.5 mph - N/A   Overcast
8:15 PM 43.2 °F 41.5 °F 33.1 °F 68% 30.00 in 10.0 mi West 3.5 mph - N/A   Overcast
8:55 PM 43.0 °F 41.3 °F 33.8 °F 70% 30.01 in 10.0 mi WNW 3.5 mph - N/A   Overcast
9:15 PM 43.0 °F 40.3 °F 33.3 °F 69% 30.01 in 10.0 mi NW 4.6 mph - N/A   Overcast
9:35 PM 43.0 °F 41.3 °F 33.6 °F 70% 30.01 in 10.0 mi NW 3.5 mph - N/A   Overcast
9:55 PM 42.8 °F - 33.8 °F 70% 30.01 in 10.0 mi Calm Calm - N/A   Overcast
10:15 PM 42.4 °F - 34.2 °F 72% 30.02 in 10.0 mi Calm Calm - N/A   Overcast
10:35 PM 42.1 °F - 34.3 °F 74% 30.02 in 10.0 mi Calm Calm - N/A   Overcast
10:55 PM 41.9 °F - 34.7 °F 76% 30.02 in 10.0 mi Calm Calm - N/A   Overcast
11:15 PM 41.9 °F - 34.9 °F 76% 30.02 in 10.0 mi Calm Calm - N/A   Overcast
11:35 PM 41.5 °F - 35.1 °F 78% 30.02 in 10.0 mi Calm Calm - N/A   Overcast
11:55 PM 41.9 °F - 35.1 °F 77% 30.02 in 10.0 mi Calm Calm - N/A   Overcast